Tracking 34094 objects as of 11-May-2026
HD Live streaming from Space Station
objects crossing your sky now

COSMOS 2190

Track COSMOS 2190 now!
10-day predictions
COSMOS 2190 is classified as:


NORAD ID: 21979
Int'l Code: 1992-030D
Perigee: 1,437.5 km
Apogee: 1,486.7 km
Inclination: 74.0 °
Period: 115.0 minutes
Semi major axis: 7833 km
RCS: 0.7129 m2 (medium)
Launch date: June 3, 1992
Source: Commonwealth of Independent States (former USSR) (CIS)
Launch site: PLESETSK MISSILE AND SPACE COMPLEX (PKMTR)
Your satellite tracking list
Your tracking list is empty




NASA's NSSDC Master Catalog

Two Line Element Set (TLE):
1 21979U 92030D   26130.84766112 -.00000006  00000-0  64247-4 0  9993
2 21979  74.0025 266.6416 0031450 163.2275 311.3281 12.52285420551278
Source of the keplerian elements: AFSPC